Showing default

BRO-1, 44495

Orbit data source: Space-Track

BRO-1, 44495 is a payload satellite owned by Unseen Labs (FR) in LEO that was launched on Mon, 19 Aug 2019 UTC via an ELECTRON launch vehicle from the Rocket Lab Launch Complex (RLLC). Payloads include a variety of satellites, spacecraft, and rockets equipped with specific instruments for various scientific and technological missions. These include communications satellites like Starlink; space stations such as the ISS; scientific satellites like the Hubble; Earth observation satellites from companies like Planet Labs, Umbra, and HawkEye 360; GPS; miniature CubeSats for education and research; and military/defense satellites.

Loading next visibility...
BRO-1 details
Identifier
44495, 2019-054A
Orbit
LEO
Last TLE update5 hours ago
Origin
Flag of FRUnseen Labs (FR)
ManufacturerGOMSpace
MissionOperational Commercial Sigint
Bus & MotorCUBESAT 6U, Unknown motor
Mass10 kg wet, ~10 kg dry
Launch date (UTC)
2019-08-19 (5 years ago)
Launch vehicle
ELECTRON
Launch site
Rocket Lab Launch Complex (RLLC)
Object type
Payload
Rocket body
Debris
Shape & HBRBox, 0.3 m
Radar Cross Section0.080 m², Small (<0.1 m²)

Expand to show TLE details & history

TLE from 5 hours ago
0 BRO-1
1 44495U 19054A   24361.47416622  .00029395  00000-0  91493-3 0  9990
2 44495  45.0102  94.9440 0004951 266.5115  93.5203 15.32827615296284
Epoch: 2024-12-26T11:22Z
Definitive object data (Epoch: 2024-12-26T11:22:47.961Z)
Latitude-0.00008°
Longitude-171.20896°
Altitude467.59 km
Speed7.634 km/s
True Right ascension06h 19m 46s
True Declination0° 00' 00"
Sunlit
Object was in full shadow at TLE epoch
Visualization TLE readout
Latitude10.1062°
Longitude-162.09327°
Altitude467.569 km
Speed7.634 km/s
Apparent Right ascension05h 30m 40s
Apparent Declination-15° 18' 18"
Sunlit
Object is in full shadow
Visualization observer readout
Local Sidereal Time15:30:10
Azimuth304.515° NW
Elevation-54.022°
Doppler factor1
Orbital elements
Apogee altitude472.382 km
Perigee altitude465.602 km
Semi-major axis6,847.129 km
Eccentricity0.0004951
Inclination45.0102°
RAAN94.944°
Arg. of periapsis266.5115°
True anomaly93.57693°
Mean anomaly93.5203°
Eccentric anomaly93.54861°
Mean motion3.83072 °/min
BSTAR0.00091493
Orbital period93.98 mins
Loading maneuver chart data...
Loading historical data...
Loading historical data...
Loading historical data...
Loading historical data...
Loading historical data...
Loading historical data...
Loading historical data...

BRO-1 Visibility forecast

Observer location: undefined°, undefined

Span
Click to sort rows by Start time (UTC) header in descending order
Start Az.
Max El. time (UTC)
Max El. Az.
Max El.
End time (UTC)
End Az.
4 mins2024-12-26 16:36:03.333Z260.628° W2024-12-26 16:38:03.333Z222.277° SW19.19°2024-12-26 16:40:03.333Z180.728° SSW
5 mins2024-12-27 09:29:03.333Z210.989° SW2024-12-27 09:31:03.333Z162.479° S32.967°2024-12-27 09:34:03.333Z81.403° E
5 mins2024-12-27 11:08:03.333Z280.988° WNW2024-12-27 11:10:03.333Z3.147° NNE37.116°2024-12-27 11:13:03.333Z60.825° ENE
4 mins2024-12-27 12:47:03.333Z314.343° NW2024-12-27 12:49:03.333Z20.357° NNE29.738°2024-12-27 12:51:03.333Z64.114° ENE
5 mins2024-12-27 14:25:03.333Z298.428° NW2024-12-27 14:27:03.333Z333.819° NNW42.671°2024-12-27 14:30:03.333Z105.515° ESE
4 mins2024-12-27 16:04:03.333Z252.224° W2024-12-27 16:06:03.333Z204.487° SW20.843°2024-12-27 16:08:03.333Z168.221° S
|